| time (UTC) | temp C | wind direction | speed KPH | gust KPH | rain 1hr cm | rain 24hr cm | rain mn cm | humidity % | barometer mb |
| 20260503210121 | 10 | 284 | 4.8 | 9.7 | 0.00 | 0.00 | 0.00 | 44 | 1002.9 |
| 20260503205616 | 9 | 284 | 0.0 | 3.2 | 0.00 | 0.00 | 0.00 | 47 | 1002.6 |
| 20260503205113 | 10 | 284 | 1.6 | 3.2 | 0.00 | 0.00 | 0.00 | 46 | 1002.8 |
| 20260503204610 | 10 | 284 | 0.0 | 4.8 | 0.00 | 0.00 | 0.00 | 45 | 1002.6 |
| 20260503204108 | 10 | 284 | 3.2 | 9.7 | 0.00 | 0.00 | 0.00 | 44 | 1002.6 |
| 20260503203604 | 10 | 284 | 0.0 | 4.8 | 0.00 | 0.00 | 0.00 | 45 | 1002.4 |
| 20260503203102 | 10 | 284 | 3.2 | 6.4 | 0.00 | 0.00 | 0.00 | 43 | 1002.9 |
| 20260503202559 | 10 | 284 | 0.0 | 0.0 | 0.00 | 0.00 | 0.00 | 43 | 1002.7 |
| 20260503202057 | 10 | 284 | 0.0 | 1.6 | 0.00 | 0.00 | 0.00 | 44 | 1002.7 |
| 20260503201555 | 10 | 284 | 0.0 | 0.0 | 0.00 | 0.00 | 0.00 | 46 | 1002.8 |
| 20260503201051 | 10 | 284 | 1.6 | 6.4 | 0.00 | 0.00 | 0.00 | 45 | 1002.7 |
| 20260503200547 | 10 | 284 | 0.0 | 6.4 | 0.00 | 0.00 | 0.00 | 44 | 1002.7 |
| 20260503200044 | 10 | 284 | 1.6 | 1.6 | 0.00 | 0.00 | 0.00 | 44 | 1002.6 |
| 20260503195541 | 10 | 284 | 1.6 | 6.4 | 0.00 | 0.00 | 0.00 | 44 | 1002.6 |
| 20260503195038 | 10 | 284 | 0.0 | 11.3 | 0.00 | 0.00 | 0.00 | 43 | 1002.8 |
| 20260503194536 | 10 | 284 | 1.6 | 3.2 | 0.00 | 0.00 | 0.00 | 43 | 1002.6 |
| 20260503194035 | 10 | 284 | 1.6 | 6.4 | 0.00 | 0.00 | 0.00 | 44 | 1002.9 |
| 20260503193533 | 10 | 284 | 3.2 | 4.8 | 0.00 | 0.00 | 0.00 | 44 | 1002.9 |
| 20260503193028 | 10 | 284 | 3.2 | 4.8 | 0.00 | 0.00 | 0.00 | 41 | 1002.8 |
| 20260503192524 | 11 | 284 | 6.4 | 9.7 | 0.00 | 0.00 | 0.00 | 41 | 1003.0 |
| 20260503192020 | 10 | 284 | 1.6 | 4.8 | 0.00 | 0.00 | 0.00 | 42 | 1002.7 |
| 20260503191517 | 10 | 284 | 3.2 | 11.3 | 0.00 | 0.00 | 0.00 | 40 | 1003.1 |
| 20260503191014 | 10 | 284 | 3.2 | 3.2 | 0.00 | 0.00 | 0.00 | 43 | 1003.1 |
| 20260503190510 | 10 | 284 | 3.2 | 9.7 | 0.00 | 0.00 | 0.00 | 45 | 1002.7 |
| 20260503190008 | 10 | 284 | 0.0 | 4.8 | 0.00 | 0.00 | 0.00 | 47 | 1002.8 |
| 20260503185503 | 10 | 284 | 4.8 | 9.7 | 0.00 | 0.00 | 0.00 | 45 | 1002.9 |
| 20260503184958 | 10 | 284 | 4.8 | 16.1 | 0.00 | 0.00 | 0.00 | 46 | 1002.9 |
| 20260503184455 | 10 | 284 | 3.2 | 4.8 | 0.00 | 0.00 | 0.00 | 47 | 1002.8 |
| 20260503183951 | 11 | 284 | 6.4 | 9.7 | 0.00 | 0.00 | 0.00 | 43 | 1002.9 |
| 20260503183448 | 10 | 284 | 1.6 | 6.4 | 0.00 | 0.00 | 0.00 | 48 | 1002.8 |
| 20260503182944 | 11 | 284 | 6.4 | 9.7 | 0.00 | 0.00 | 0.00 | 46 | 1002.9 |
| 20260503182443 | 11 | 284 | 3.2 | 9.7 | 0.00 | 0.00 | 0.00 | 49 | 1002.8 |
| 20260503181941 | 10 | 284 | 3.2 | 9.7 | 0.00 | 0.00 | 0.00 | 48 | 1002.7 |
| 20260503181438 | 10 | 284 | 3.2 | 11.3 | 0.00 | 0.00 | 0.00 | 47 | 1002.6 |
| 20260503180933 | 10 | 284 | 6.4 | 16.1 | 0.00 | 0.00 | 0.00 | 48 | 1002.6 |
| 20260503180432 | 10 | 284 | 6.4 | 14.5 | 0.00 | 0.00 | 0.00 | 48 | 1002.8 |
| 20260503175928 | 10 | 284 | 4.8 | 9.7 | 0.00 | 0.00 | 0.00 | 50 | 1002.5 |
| 20260503175427 | 10 | 284 | 3.2 | 6.4 | 0.00 | 0.00 | 0.00 | 52 | 1003.0 |
| 20260503174922 | 10 | 284 | 6.4 | 6.4 | 0.00 | 0.00 | 0.00 | 49 | 1002.8 |
| 20260503174420 | 10 | 284 | 4.8 | 9.7 | 0.00 | 0.00 | 0.00 | 53 | 1002.7 |
| 20260503173914 | 9 | 284 | 3.2 | 4.8 | 0.00 | 0.00 | 0.00 | 54 | 1002.6 |
| 20260503173411 | 9 | 284 | 3.2 | 14.5 | 0.00 | 0.00 | 0.00 | 55 | 1002.7 |
| 20260503172908 | 10 | 284 | 9.7 | 12.9 | 0.00 | 0.00 | 0.00 | 52 | 1002.8 |
| 20260503172405 | 9 | 284 | 6.4 | 12.9 | 0.00 | 0.00 | 0.00 | 56 | 1002.7 |
| 20260503171901 | 8 | 284 | 6.4 | 9.7 | 0.00 | 0.00 | 0.00 | 56 | 1002.6 |
| 20260503171358 | 9 | 284 | 3.2 | 4.8 | 0.00 | 0.00 | 0.00 | 56 | 1002.9 |
| 20260503170855 | 9 | 284 | 1.6 | 12.9 | 0.00 | 0.00 | 0.00 | 57 | 1002.6 |
| 20260503170352 | 8 | 250 | 3.2 | 6.4 | 0.00 | 0.00 | 0.00 | 58 | 1002.9 |
| 20260503150744 | 6 | 250 | 1.6 | 3.2 | 0.00 | 0.00 | 0.00 | 80 | 1003.9 |
| 20260503150240 | 6 | 250 | 4.8 | 6.4 | 0.00 | 0.00 | 0.00 | 81 | 1003.9 |
| 20260503140204 | 5 | 250 | 1.6 | 3.2 | 0.00 | 0.00 | 0.00 | 84 | 1004.4 |
| 20260503131134 | 5 | 250 | 0.0 | 3.2 | 0.00 | 0.00 | 0.00 | 87 | 1004.9 |
| 20260503130632 | 5 | 250 | 1.6 | 3.2 | 0.00 | 0.00 | 0.00 | 88 | 1004.8 |
| 20260503130129 | 5 | 250 | 0.0 | 4.8 | 0.00 | 0.00 | 0.00 | 87 | 1004.8 |
| 20260503110522 | 4 | 250 | 0.0 | 3.2 | 0.00 | 0.00 | 0.00 | 95 | 1005.4 |
| 20260503090409 | 3 | 250 | 0.0 | 0.0 | 0.00 | 0.00 | 0.00 | 95 | 1006.0 |
| 20260503081335 | 3 | 250 | 0.0 | 0.0 | 0.00 | 0.00 | 0.00 | 95 | 1006.4 |
| 20260503080832 | 3 | 250 | 0.0 | 0.0 | 0.00 | 0.00 | 0.00 | 95 | 1006.3 |
| 20260503080329 | 3 | 250 | 0.0 | 0.0 | 0.00 | 0.00 | 0.00 | 95 | 1006.4 |
| 20260503072759 | 4 | 250 | 0.0 | 0.0 | 0.00 | 0.00 | 0.00 | 95 | 1006.5 |
| 20260503072256 | 4 | 250 | 0.0 | 0.0 | 0.00 | 0.00 | 0.00 | 95 | 1006.2 |
| 20260503071752 | 4 | 250 | 0.0 | 0.0 | 0.00 | 0.00 | 0.00 | 95 | 1006.3 |
| 20260503071250 | 4 | 250 | 0.0 | 0.0 | 0.00 | 0.00 | 0.00 | 95 | 1006.4 |
| 20260503070746 | 4 | 250 | 0.0 | 1.6 | 0.00 | 0.00 | 0.00 | 95 | 1006.7 |
| 20260503070244 | 4 | 250 | 0.0 | 0.0 | 0.00 | 0.00 | 0.00 | 95 | 1006.7 |
| 20260503060209 | 5 | 250 | 0.0 | 0.0 | 0.00 | 0.00 | 0.00 | 95 | 1007.4 |
| 20260503054655 | 5 | 250 | 0.0 | 0.0 | 0.00 | 0.00 | 0.00 | 95 | 1007.7 |
| 20260503054153 | 5 | 250 | 0.0 | 0.0 | 0.00 | 0.00 | 0.00 | 95 | 1007.5 |
| 20260503053651 | 5 | 250 | 0.0 | 0.0 | 0.00 | 0.00 | 0.00 | 95 | 1007.9 |
| 20260503053149 | 5 | 250 | 0.0 | 0.0 | 0.00 | 0.00 | 0.00 | 95 | 1007.6 |
| 20260503052645 | 5 | 250 | 0.0 | 0.0 | 0.00 | 0.00 | 0.00 | 95 | 1007.6 |
| 20260503052141 | 5 | 250 | 0.0 | 0.0 | 0.00 | 0.00 | 0.00 | 95 | 1007.9 |
| 20260503051637 | 5 | 250 | 0.0 | 0.0 | 0.00 | 0.00 | 0.00 | 95 | 1008.1 |
| 20260503051135 | 5 | 250 | 0.0 | 0.0 | 0.00 | 0.00 | 0.00 | 95 | 1008.2 |
| 20260503050631 | 5 | 250 | 0.0 | 0.0 | 0.00 | 0.00 | 0.00 | 95 | 1008.2 |
| 20260503050128 | 5 | 250 | 0.0 | 1.6 | 0.00 | 0.00 | 0.00 | 95 | 1008.2 |
| 20260503045626 | 5 | 250 | 0.0 | 0.0 | 0.00 | 0.00 | 0.00 | 95 | 1008.7 |
| 20260503045123 | 5 | 250 | 0.0 | 0.0 | 0.00 | 0.00 | 0.00 | 95 | 1008.1 |
| 20260503044619 | 5 | 250 | 0.0 | 0.0 | 0.00 | 0.00 | 0.00 | 95 | 1008.3 |
| 20260503044117 | 5 | 250 | 0.0 | 0.0 | 0.00 | 0.00 | 0.00 | 95 | 1008.1 |
| 20260503043613 | 5 | 250 | 0.0 | 0.0 | 0.00 | 0.00 | 0.00 | 95 | 1008.5 |
| 20260503043110 | 5 | 250 | 0.0 | 0.0 | 0.00 | 0.00 | 0.00 | 95 | 1008.5 |
| 20260503042607 | 5 | 250 | 0.0 | 0.0 | 0.00 | 0.00 | 0.00 | 95 | 1008.4 |
| 20260503042103 | 5 | 250 | 0.0 | 0.0 | 0.00 | 0.00 | 0.00 | 95 | 1008.2 |
| 20260503041559 | 5 | 250 | 0.0 | 3.2 | 0.00 | 0.00 | 0.00 | 95 | 1008.5 |
| 20260503041057 | 5 | 250 | 0.0 | 0.0 | 0.00 | 0.00 | 0.00 | 95 | 1008.5 |
| 20260503040554 | 5 | 250 | 0.0 | 0.0 | 0.00 | 0.00 | 0.00 | 95 | 1008.5 |
| 20260503040052 | 5 | 250 | 0.0 | 0.0 | 0.00 | 0.36 | 0.36 | 95 | 1008.4 |
| 20260503035548 | 5 | 250 | 0.0 | 0.0 | 0.00 | 0.36 | 0.36 | 95 | 1008.5 |
| 20260503035046 | 5 | 250 | 0.0 | 0.0 | 0.00 | 0.36 | 0.36 | 95 | 1008.4 |
| 20260503034543 | 5 | 250 | 0.0 | 0.0 | 0.00 | 0.36 | 0.36 | 95 | 1008.7 |
| 20260503034040 | 5 | 250 | 0.0 | 0.0 | 0.00 | 0.36 | 0.36 | 95 | 1008.7 |
| 20260503033537 | 5 | 250 | 0.0 | 0.0 | 0.00 | 0.36 | 0.36 | 95 | 1008.9 |
| 20260503033035 | 5 | 250 | 0.0 | 0.0 | 0.00 | 0.36 | 0.36 | 95 | 1008.8 |
| 20260503032533 | 5 | 250 | 0.0 | 0.0 | 0.00 | 0.36 | 0.36 | 95 | 1008.7 |
| 20260503032031 | 5 | 250 | 0.0 | 0.0 | 0.00 | 0.36 | 0.36 | 95 | 1008.8 |
| 20260503031529 | 5 | 250 | 0.0 | 0.0 | 0.13 | 0.36 | 0.36 | 95 | 1008.9 |
| 20260503031026 | 5 | 250 | 0.0 | 0.0 | 0.00 | 0.33 | 0.33 | 95 | 1008.8 |
| 20260503030522 | 5 | 250 | 0.0 | 0.0 | 0.00 | 0.33 | 0.33 | 95 | 1008.9 |
| 20260503030019 | 5 | 250 | 0.0 | 0.0 | 0.00 | 0.33 | 0.33 | 95 | 1008.9 |
| 20260503025515 | 5 | 250 | 0.0 | 0.0 | 0.00 | 0.33 | 0.33 | 95 | 1009.1 |
| 20260503025014 | 5 | 250 | 0.0 | 0.0 | 0.00 | 0.33 | 0.33 | 95 | 1008.8 |
| 20260503024509 | 5 | 250 | 0.0 | 0.0 | 0.00 | 0.33 | 0.33 | 95 | 1009.0 |
| 20260503024007 | 5 | 250 | 0.0 | 0.0 | 0.00 | 0.33 | 0.33 | 95 | 1008.8 |
| 20260503023503 | 5 | 250 | 0.0 | 0.0 | 0.00 | 0.33 | 0.33 | 95 | 1009.0 |
| 20260503023001 | 5 | 250 | 0.0 | 0.0 | 0.00 | 0.33 | 0.33 | 95 | 1009.0 |
| 20260503022456 | 5 | 250 | 0.0 | 0.0 | 0.00 | 0.33 | 0.33 | 95 | 1008.9 |
| 20260503021951 | 5 | 250 | 0.0 | 0.0 | 0.00 | 0.33 | 0.33 | 95 | 1009.1 |
| 20260503021448 | 5 | 250 | 0.0 | 0.0 | 0.00 | 0.33 | 0.33 | 95 | 1009.0 |
| 20260503020946 | 5 | 250 | 0.0 | 0.0 | 0.00 | 0.33 | 0.33 | 95 | 1009.2 |
| 20260503020443 | 5 | 250 | 0.0 | 0.0 | 0.00 | 0.33 | 0.33 | 95 | 1009.3 |
| 20260503015939 | 5 | 250 | 0.0 | 0.0 | 0.00 | 0.33 | 0.33 | 95 | 1009.2 |
| 20260503015436 | 5 | 250 | 0.0 | 0.0 | 0.00 | 0.33 | 0.33 | 95 | 1009.4 |
| 20260503014932 | 5 | 250 | 0.0 | 0.0 | 0.00 | 0.33 | 0.33 | 95 | 1009.5 |
| 20260503014429 | 5 | 250 | 0.0 | 0.0 | 0.00 | 0.33 | 0.33 | 95 | 1009.4 |
| 20260503013928 | 5 | 250 | 0.0 | 0.0 | 0.00 | 0.33 | 0.33 | 95 | 1009.5 |
| 20260503013424 | 5 | 250 | 0.0 | 0.0 | 0.00 | 0.33 | 0.33 | 95 | 1009.4 |
| 20260503012922 | 5 | 250 | 1.6 | 1.6 | 0.00 | 0.33 | 0.33 | 95 | 1009.4 |
| 20260503012420 | 5 | 250 | 0.0 | 0.0 | 0.18 | 0.33 | 0.33 | 95 | 1009.5 |
| 20260503011915 | 5 | 250 | 0.0 | 0.0 | 0.18 | 0.33 | 0.33 | 95 | 1009.7 |
| 20260503011412 | 5 | 250 | 0.0 | 0.0 | 0.00 | 0.30 | 0.30 | 95 | 1009.6 |
| 20260503010909 | 5 | 250 | 0.0 | 0.0 | 0.00 | 0.30 | 0.30 | 95 | 1009.7 |
| 20260503010406 | 5 | 250 | 0.0 | 0.0 | 0.00 | 0.30 | 0.30 | 95 | 1009.7 |
| 20260503005903 | 6 | 250 | 0.0 | 0.0 | 0.00 | 0.30 | 0.30 | 95 | 1009.7 |
| 20260503005401 | 6 | 250 | 0.0 | 0.0 | 0.13 | 0.30 | 0.30 | 95 | 1009.6 |
| 20260503004856 | 6 | 250 | 0.0 | 0.0 | 0.13 | 0.30 | 0.30 | 95 | 1009.8 |
| 20260503004354 | 6 | 250 | 0.0 | 0.0 | 0.00 | 0.28 | 0.28 | 95 | 1009.8 |
| 20260503003852 | 6 | 250 | 0.0 | 0.0 | 0.00 | 0.28 | 0.28 | 95 | 1009.6 |
| 20260503003348 | 6 | 250 | 0.0 | 0.0 | 0.00 | 0.28 | 0.28 | 95 | 1009.7 |
| 20260503002845 | 6 | 250 | 0.0 | 0.0 | 0.00 | 0.28 | 0.28 | 95 | 1009.7 |
| 20260503002343 | 6 | 250 | 0.0 | 0.0 | 0.18 | 0.28 | 0.28 | 95 | 1009.5 |
| 20260503001839 | 6 | 250 | 0.0 | 0.0 | 0.18 | 0.28 | 0.28 | 95 | 1009.5 |
| 20260503001335 | 6 | 250 | 0.0 | 0.0 | 0.00 | 0.25 | 0.25 | 95 | 1009.3 |
| 20260503000832 | 6 | 250 | 0.0 | 0.0 | 0.00 | 0.25 | 0.25 | 95 | 1009.1 |
| 20260503000330 | 6 | 250 | 0.0 | 0.0 | 0.00 | 0.25 | 0.25 | 95 | 1009.3 |
| 20260502235827 | 6 | 250 | 0.0 | 0.0 | 0.00 | 0.25 | 0.25 | 95 | 1009.1 |
| 20260502235324 | 6 | 250 | 0.0 | 0.0 | 0.00 | 0.25 | 0.25 | 95 | 1009.4 |
| 20260502234821 | 6 | 250 | 0.0 | 0.0 | 0.00 | 0.25 | 0.25 | 95 | 1009.2 |
| 20260502234318 | 6 | 250 | 0.0 | 0.0 | 0.00 | 0.25 | 0.25 | 95 | 1009.3 |
| 20260502233814 | 6 | 250 | 0.0 | 0.0 | 0.00 | 0.25 | 0.25 | 95 | 1009.4 |
| 20260502233311 | 6 | 250 | 0.0 | 0.0 | 0.00 | 0.25 | 0.25 | 95 | 1009.5 |
| 20260502232808 | 6 | 250 | 0.0 | 0.0 | 0.00 | 0.25 | 0.25 | 95 | 1009.3 |
| 20260502232305 | 6 | 250 | 0.0 | 0.0 | 0.00 | 0.25 | 0.25 | 95 | 1009.0 |
| 20260502231800 | 6 | 250 | 0.0 | 0.0 | 0.00 | 0.25 | 0.25 | 95 | 1009.1 |
| 20260502231258 | 6 | 250 | 0.0 | 0.0 | 0.00 | 0.25 | 0.25 | 95 | 1009.0 |
| 20260502230756 | 6 | 250 | 0.0 | 0.0 | 0.18 | 0.25 | 0.25 | 95 | 1009.0 |
| 20260502230254 | 6 | 250 | 0.0 | 0.0 | 0.18 | 0.25 | 0.25 | 95 | 1009.0 |
| 20260502225750 | 6 | 250 | 0.0 | 1.6 | 0.00 | 0.23 | 0.23 | 95 | 1009.2 |
| 20260502225247 | 6 | 250 | 0.0 | 0.0 | 0.00 | 0.23 | 0.23 | 95 | 1008.8 |
| 20260502224744 | 6 | 250 | 0.0 | 0.0 | 0.00 | 0.23 | 0.23 | 95 | 1009.1 |
| 20260502224241 | 6 | 250 | 0.0 | 0.0 | 0.00 | 0.23 | 0.23 | 95 | 1009.1 |
| 20260502223738 | 6 | 250 | 0.0 | 0.0 | 0.00 | 0.23 | 0.23 | 95 | 1008.9 |
| 20260502223236 | 6 | 250 | 0.0 | 0.0 | 0.00 | 0.23 | 0.23 | 95 | 1009.0 |
| 20260502222734 | 6 | 250 | 0.0 | 0.0 | 0.00 | 0.23 | 0.23 | 95 | 1009.1 |
| 20260502222230 | 6 | 250 | 0.0 | 0.0 | 0.00 | 0.23 | 0.23 | 95 | 1009.0 |
| 20260502221726 | 6 | 250 | 0.0 | 0.0 | 0.00 | 0.23 | 0.23 | 95 | 1008.9 |
| 20260502221223 | 6 | 250 | 0.0 | 0.0 | 0.13 | 0.23 | 0.23 | 95 | 1009.1 |
| 20260502220719 | 6 | 250 | 0.0 | 0.0 | 0.18 | 0.20 | 0.20 | 95 | 1009.0 |
| 20260502220215 | 6 | 250 | 0.0 | 0.0 | 0.18 | 0.20 | 0.20 | 95 | 1009.2 |
| 20260502215713 | 6 | 250 | 0.0 | 0.0 | 0.00 | 0.18 | 0.18 | 95 | 1009.2 |
| 20260502215209 | 6 | 250 | 0.0 | 0.0 | 0.13 | 0.18 | 0.18 | 95 | 1009.2 |
| 20260502214707 | 6 | 250 | 0.0 | 0.0 | 0.13 | 0.18 | 0.18 | 94 | 1009.5 |
| 20260502214204 | 6 | 250 | 0.0 | 0.0 | 0.00 | 0.15 | 0.15 | 94 | 1009.4 |
| 20260502213701 | 6 | 250 | 0.0 | 0.0 | 0.00 | 0.15 | 0.15 | 94 | 1009.3 |
| 20260502213158 | 6 | 250 | 0.0 | 0.0 | 0.00 | 0.15 | 0.15 | 94 | 1009.1 |
| 20260502212656 | 6 | 250 | 0.0 | 0.0 | 0.00 | 0.15 | 0.15 | 94 | 1009.2 |
| 20260502212155 | 6 | 250 | 0.0 | 0.0 | 0.00 | 0.15 | 0.15 | 94 | 1009.2 |
| 20260502211650 | 6 | 250 | 0.0 | 0.0 | 0.00 | 0.15 | 0.15 | 94 | 1009.4 |
| 20260502211147 | 6 | 250 | 0.0 | 0.0 | 0.18 | 0.15 | 0.15 | 94 | 1009.4 |
| 20260502210644 | 6 | 250 | 0.0 | 0.0 | 0.18 | 0.15 | 0.15 | 94 | 1009.5 |